#timestamp,LO_Frequency,Hit 
1498334415.1,286047061.5,N
1498334435.8,286047063.7,N
1498334455.7,286047060.1,N
1498334475.5,286047054.1,N
1498334495.3,286047055.5,N
1498334515.2,286047056.3,N
1498334535.9,286047058.7,N
1498334555.7,286047059.6,N
1498334575.6,286047069.0,N
1498334595.4,286047057.4,N
1498334615.2,286047064.8,N
1498334635.0,286047067.7,N
1498334635.9,286047067.7,N
1498334655.8,286047075.5,N
1498334675.6,286047081.5,N
1498334695.4,286047077.0,N
1498334715.3,286047078.0,N
1498334735.1,286047084.9,N
1498334755.8,286047077.2,N
1498334775.7,286047073.3,N
1498334795.5,286047078.4,N
1498334815.3,286047078.9,N
1498334835.2,286047085.4,N
1498334855.9,286047089.8,N
1498334875.7,286047090.7,N
1498334895.5,286047086.3,N
1498334915.4,286047091.0,N
1498334935.2,286047090.8,N
1498334955.0,286047079.1,N
1498334955.9,286047079.1,N
1498334975.8,286047079.4,N
1498334995.6,286047078.5,N
1498335015.4,286047090.6,N
1498335035.3,286047097.0,N
1498335055.1,286047086.4,N
1498335075.8,286047101.8,N
1498335095.7,286047094.6,N
1498335115.5,286047090.9,N
1498335135.3,286047094.5,N
1498335155.2,286047092.9,N
1498335175.9,286047098.3,N
1498335195.7,286047095.9,N
1498335215.5,286047095.4,N
1498335235.4,286047093.0,N
1498335255.2,286047096.9,N
1498335275.0,286047105.2,N
1498335275.9,286047105.2,N
1498335295.8,286047104.1,N
1498335315.6,286047103.9,N
1498335335.4,286047108.4,N
1498335355.3,286047111.2,N
1498335375.1,286047103.7,N
1498335376.0,286047103.7,N
1498335395.8,286047102.1,N
1498335415.7,286047098.3,N
1498335435.5,286047091.3,N
1498335455.3,286047082.0,N
1498335475.2,286047079.7,N
1498335495.9,286047081.9,N
1498335515.7,286047091.8,N
1498335535.5,286047093.8,N
1498335555.4,286047094.0,N
1498335575.2,286047084.8,N
1498335595.0,286047077.3,N
1498335595.9,286047077.3,N
1498335615.8,286047072.6,N
1498335635.6,286047082.0,N
1498335655.4,286047084.0,N
1498335675.3,286047085.1,N
1498335695.1,286047085.6,N
1498335715.8,286047083.5,N
1498335735.7,286047084.8,N
1498335755.5,286047084.6,N
1498335775.3,286047094.8,N
1498335795.2,286047111.5,N
1498335815.9,286047101.3,N
1498335835.7,286047093.6,N
1498335855.6,286047093.0,N
1498335875.4,286047092.2,N
1498335895.2,286047093.7,N
1498335915.0,286047090.4,N
1498335915.9,286047090.4,N
1498335935.8,286047090.5,N
1498335955.6,286047095.3,N
1498335975.4,286047097.8,N
1498335995.3,286047101.5,N
1498336015.1,286047099.9,N
1498336035.8,286047090.8,N
1498336055.7,286047093.1,N
1498336075.5,286047101.7,N
1498336095.3,286047096.8,N
1498336115.2,286047098.1,N
1498336135.9,286047098.5,N
1498336155.7,286047095.0,N
1498336175.6,286047093.0,N
1498336195.4,286047092.2,N
1498336215.2,286047088.6,N
1498336235.0,286047090.5,N
1498336235.9,286047090.5,N
1498336255.8,286047091.8,N
1498336275.6,286047093.7,N
1498336295.4,286047095.3,N
1498336315.3,286047101.3,N
1498336335.1,286047096.4,N
1498336355.8,286047095.3,N
1498336375.7,286047101.1,N
1498336395.5,286047103.9,N
1498336415.3,286047104.9,N
1498336435.2,286047105.8,N
1498336455.9,286047108.8,N
1498336475.7,286047111.7,N
1498336495.5,286047109.2,N
1498336515.4,286047107.0,N
1498336535.2,286047115.7,N
1498336555.0,286047111.5,N
1498336555.9,286047111.5,N
1498336575.8,286047114.3,N
1498336595.6,286047117.1,N
1498336615.4,286047123.1,N
1498336635.3,286047123.5,N
1498336655.1,286047118.1,N
1498336656.0,286047118.1,N
1498336675.8,286047115.6,N
1498336695.7,286047115.9,N
1498336715.5,286047115.5,N
1498336735.3,286047112.2,N
1498336755.2,286047113.7,N
1498336775.9,286047111.7,N
1498336795.7,286047110.4,N
1498336815.6,286047109.6,N
1498336835.4,286047114.4,N
1498336855.2,286047107.0,N
1498336875.0,286047106.0,N
1498336875.9,286047106.0,N
1498336895.8,286047105.3,N
1498336915.6,286047103.6,N
1498336935.4,286047094.7,N
1498336955.3,286047109.4,N
1498336975.1,286047114.0,N
1498336995.8,286047113.5,N
1498337015.7,286047117.2,N
1498337035.5,286047117.2,N
1498337055.3,286047108.6,N
1498337075.2,286047111.5,N
1498337095.9,286047105.0,N
1498337115.7,286047111.7,N
1498337135.6,286047117.9,N
1498337155.4,286047120.0,N
1498337175.2,286047112.5,N
1498337195.0,286047109.3,N
1498337195.9,286047109.3,N
1498337215.8,286047109.2,N
1498337235.6,286047110.8,N
1498337255.4,286047116.4,N
1498337275.3,286047117.1,N
1498337295.1,286047119.2,N
1498337315.8,286047120.9,N
1498337335.7,286047114.4,N
1498337355.5,286047113.0,N
1498337375.3,286047112.0,N
1498337395.2,286047117.6,N
1498337415.9,286047127.5,Y
1498337435.7,286047025.0,N
1498337455.6,286047022.9,N
1498337475.4,286047023.9,N
1498337495.2,286047024.9,N
1498337515.1,286047028.6,N
1498337516.0,286047028.6,N
1498337535.8,286047026.5,N
1498337555.6,286047025.5,N
1498337575.4,286047024.2,N
1498337595.3,286047027.6,N
1498337615.1,286047019.9,N
1498337635.8,286047020.7,N
1498337655.7,286047019.1,N
1498337675.5,286047028.1,N
1498337695.3,286047028.2,N
1498337715.2,286047033.1,N
1498337735.9,286047039.5,N
1498337755.7,286047032.7,N
1498337775.6,286047027.4,N
1498337795.4,286047026.1,N
1498337815.2,286047028.9,N
1498337835.1,286047032.6,N
1498337836.0,286047032.6,N
1498337855.8,286047028.4,N
1498337875.6,286047028.4,N
1498337895.4,286047030.4,N
1498337915.3,286047029.8,N
1498337935.1,286047027.4,N
1498337955.8,286047024.6,N
1498337975.7,286047021.7,N
1498337995.5,286047019.2,N
